Flag for Switzerland Weather past 2 weeks in Worb, Bern, Switzerland

Now
34 °F

Chilly.


Feels Like: 34 °F
Forecast: 33 / 60 °F
Wind: 1 mph from North

Location: Bern / Belp

Current Time: Apr 19, 2015 at 3:31:49 AM

Latest Report: Apr 19, 2015 at 2:50 AM


Visibility: N/A

Pressure: 30.04 "Hg

Humidity: 93%

Dew point: 32 °F

Location of WorbLocation

Historic Weather in Worb — Graph

°F

Worb temperature yesterday

Maximum temperature yesterday: 52 °F (at 3:20 PM)
Minimum temperature yesterday: 41 °F (at 11:50 PM)
Average temperature yesterday: 47 °F

Past Weeks' High & Low Weather Summary

 TemperatureHumidityPressure
High75 °F (Apr 15, 6:50 PM)100% (Apr 4, 4:50 AM)30.48 "Hg (Apr 4, 4:50 AM)
Low25 °F (Apr 6, 3:50 AM)17% (Apr 14, 6:20 PM)29.80 "Hg (Apr 4, 4:50 PM)
Average48 °F68%30.22 "Hg
* Reported Apr 4 2:20 AM — Apr 19 2:20 AM, Worb, Weather by CustomWeather, © 2015

Note: Actual official high and low records may vary slightly from our data, if they occured in-between our weather recording intervals... More about our weather records

Advertising

Worb weather history for previous 24 hours

 ConditionsComfort  
Time TempWeatherWind HumidityBarometerVisibility
2:20 AM
Sun, Apr 19
34 °FClear.1 mph87%30.04 "Hg10 mi
1:50 AM37 °FClear.1 mph81%30.04 "Hg10 mi
1:20 AM37 °FClear.1 mph75%30.04 "Hg10 mi
12:50 AM36 °FClear.1 mph87%30.04 "Hg10 mi
12:20 AM41 °FClear.3 mph66%30.04 "Hg10 mi
11:50 PM
Sat, Apr 18
41 °FClear.1 mph70%30.07 "Hg10 mi
11:20 PM43 °FClear.2 mph61%30.07 "Hg10 mi
10:50 PM43 °FPassing clouds.5 mph61%30.07 "HgN/A
10:20 PM43 °FClear.3 mph66%30.07 "Hg10 mi
9:50 PM43 °FClear.3 mph66%30.07 "Hg10 mi
9:20 PM45 °FSunny.3 mph61%30.07 "Hg10 mi
8:50 PM46 °FPassing clouds.6 mph57%30.07 "HgN/A
8:20 PM48 °FPassing clouds.7 mph54%30.09 "HgN/A
7:50 PM50 °FPassing clouds.7 mph54%30.09 "HgN/A
7:20 PM50 °FScattered clouds.7 mph58%30.09 "HgN/A
6:50 PM50 °FScattered clouds.7 mph58%30.09 "HgN/A
6:20 PM50 °FPartly sunny.8 mph58%30.09 "HgN/A
5:50 PM50 °FPartly sunny.9 mph58%30.09 "HgN/A
5:20 PM50 °FPartly sunny.10 mph58%30.09 "HgN/A
4:50 PM50 °FOvercast.7 mph62%30.09 "HgN/A
4:20 PM50 °FPartly sunny.10 mph62%30.09 "HgN/A
3:50 PM50 °FBroken clouds.9 mph67%30.09 "HgN/A
3:20 PM52 °FBroken clouds.10 mph62%30.09 "HgN/A
2:50 PM50 °FBroken clouds.8 mph67%30.09 "HgN/A
2:20 PM50 °FBroken clouds.7 mph67%30.12 "HgN/A
1:50 PM48 °FPartly sunny.7 mph71%30.12 "HgN/A
1:20 PM46 °FPartly sunny.10 mph76%30.12 "HgN/A
12:50 PM46 °FPartly sunny.10 mph82%30.12 "HgN/A
12:20 PM46 °FPartly sunny.10 mph76%30.12 "HgN/A
11:50 AM46 °FPartly sunny.8 mph82%30.12 "HgN/A
11:20 AM48 °FPartly sunny.8 mph82%30.09 "HgN/A
10:50 AM46 °FBroken clouds.7 mph87%30.09 "HgN/A
10:20 AM46 °FBroken clouds.6 mph82%30.09 "HgN/A
9:50 AM45 °FBroken clouds.8 mph93%30.09 "HgN/A
9:20 AM45 °FBroken clouds.2 mph87%30.07 "HgN/A
8:50 AM45 °FBroken clouds.3 mph87%30.07 "Hg4 mi
8:20 AM45 °FBroken clouds.5 mph87%30.07 "Hg4 mi
7:50 AM46 °FBroken clouds.2 mph87%30.07 "HgN/A
7:20 AM46 °FPartly cloudy.5 mph87%30.07 "HgN/A
6:50 AM46 °FPassing clouds.3 mph87%30.04 "HgN/A
6:20 AM46 °FPartly cloudy.5 mph87%30.04 "HgN/A
5:50 AM46 °FPartly cloudy.5 mph93%30.04 "HgN/A
5:20 AM48 °FPartly cloudy.3 mph87%30.04 "HgN/A
4:50 AM48 °FPartly cloudy.5 mph94%30.04 "HgN/A
4:20 AM48 °FPartly cloudy.5 mph100%30.04 "HgN/A
3:50 AM48 °FDrizzle. Overcast.2 mph100%30.04 "HgN/A
3:20 AM48 °FPassing clouds.2 mph100%30.04 "HgN/A
Weather by CustomWeather, © 2015

See weather overviewHow to use our weather pages